Location: Grajewo
(53.6469°N, 22.4559°E)
Time: 00:04:07
(UTC+01:00)

ISS - Visible Passes

Search period start: 19 December 2018 00:00
Search period end: 29 December 2018 00:00
Orbit: 401 x 408 km, 51.6° (Epoch: 19 December)

Date Brightness Start Highest point End Pass type
(mag) Time Alt. Az. Time Alt. Az. Time Alt. Az.
24 Dec -1.2 06:58:17 10° SSW 07:00:58 24° SSE 07:03:42 10° E visible
25 Dec -0.8 06:06:45 10° S 06:08:56 17° SE 06:11:08 10° ESE visible
26 Dec -0.6 05:15:56 10° SSE 05:16:57 11° SE 05:17:58 10° ESE visible
26 Dec -2.2 06:49:42 10° SW 06:52:45 35° SSE 06:55:48 10° E visible
27 Dec -1.7 05:57:48 10° SSW 06:00:37 26° SSE 06:03:26 10° E visible
28 Dec -1.4 05:07:13 15° S 05:08:31 19° SSE 05:10:56 10° E visible
28 Dec -2.9 06:41:20 10° WSW 06:44:32 49° SSE 06:47:44 10° E visible
